Weather History for Burlington, IA

Change the Weather History Date:

Wednesday, September 19, 2012

  Actual Average Record
Temperature  
Mean Temperature 61 °F 66 °F  
Max Temperature 78 °F 78 °F 94 °F (1948)
Min Temperature 43 °F 55 °F 33 °F (1991)
Degree Days  
Heating Degree Days 4 3  
Month to date heating degree days 42 22  
Since 1 July heating degree days 45 26  
Cooling Degree Days 0 4  
Month to date cooling degree days 87 112  
Year to date cooling degree days 1269 1155  
Growing Degree Days 11 (Base 50)    
Moisture  
Dew Point 46 °F    
Average Humidity 62    
Maximum Humidity 92    
Minimum Humidity 31    
Precipitation  
Precipitation 0.02 in 0.12 in 2.01 in (2010)
Month to date precipitation 2.05 2.32  
Year to date precipitation 17.72 29.57  
Sea Level Pressure  
Sea Level Pressure 29.93 in    
Wind  
Wind Speed 13 mph (SSW)    
Max Wind Speed 30 mph    
Max Gust Speed 40 mph    
Visibility 10 miles    
Events Rain , Thunderstorm    
T = Trace of Precipitation, MM = Missing Value Source: NWS Daily Summary

Daily Weather History Graph

Daily Weather History Graph

Search for Another Location

Airport:

Trip Planner

Search our weather history database for the weather conditions in past years. The results will help you decide how hot, cold, wet, or windy it might be!

Date:

Astronomy

Sep. 19, 2012 Rise Set
Actual Time 6:49 AM CDT 7:05 PM CDT
Civil Twilight 6:22 AM CDT 7:33 PM CDT
Nautical Twilight 5:49 AM CDT 8:05 PM CDT
Astronomical Twilight 5:17 AM CDT 8:38 PM CDT
Moon 11:01 AM CDT (9/19) 9:13 PM CDT (9/19)
Length of Visible Light 13h 11m
Length of Day
12h 16m
Waxing Crescent, 17% of the Moon is Illuminated
Sep 19
Waxing Crescent
Sep 22
First Quarter
Sep 29
Full
Oct 8
Last Quarter
Oct 15
New

Hourly Weather History & Observations

Time (CDT) Temp. Windchill Dew Point Humidity Pressure Visibility Wind Dir Wind Speed Gust Speed Precip Events Conditions
12:53 AM 46.0 °F - 41.0 °F 83% 30.04 in 10.0 mi Calm Calm - N/A   Clear
1:53 AM 45.0 °F 43.5 °F 43.0 °F 93% 30.04 in 10.0 mi South 3.5 mph - N/A   Mostly Cloudy
2:53 AM 46.0 °F 43.9 °F 41.0 °F 83% 30.03 in 10.0 mi South 4.6 mph - N/A   Mostly Cloudy
3:53 AM 45.0 °F 41.8 °F 39.0 °F 80% 30.03 in 10.0 mi South 5.8 mph - N/A   Clear
4:53 AM 46.0 °F 43.1 °F 39.0 °F 76% 30.03 in 10.0 mi SSW 5.8 mph - N/A   Clear
5:53 AM 46.0 °F 42.5 °F 41.0 °F 83% 30.04 in 10.0 mi SSW 6.9 mph - N/A   Overcast
6:53 AM 46.9 °F - 41.0 °F 80% 30.03 in 10.0 mi SSW 6.9 mph - N/A   Clear
7:53 AM 50.0 °F - 42.1 °F 74% 30.04 in 10.0 mi SSW 8.1 mph - N/A   Clear
8:53 AM 55.9 °F - 42.1 °F 60% 30.03 in 10.0 mi SSW 13.8 mph 20.7 mph N/A   Clear
9:53 AM 62.1 °F - 41.0 °F 46% 30.01 in 10.0 mi SSW 18.4 mph 27.6 mph N/A   Clear
10:53 AM 68.0 °F - 39.9 °F 36% 29.99 in 10.0 mi South 19.6 mph 34.5 mph N/A   Clear
11:53 AM 71.1 °F - 41.0 °F 34% 29.97 in 10.0 mi South 19.6 mph 29.9 mph N/A   Clear
12:53 PM 73.9 °F - 43.0 °F 33% 29.93 in 10.0 mi SSW 25.3 mph 38.0 mph N/A   Clear
1:53 PM 75.9 °F - 43.0 °F 31% 29.89 in 9.0 mi SSW 26.5 mph 34.5 mph N/A   Clear
2:53 PM 77.0 °F - 44.1 °F 31% 29.87 in 10.0 mi SW 20.7 mph 34.5 mph N/A   Clear
3:53 PM 77.0 °F - 46.0 °F 33% 29.84 in 10.0 mi SSW 18.4 mph 33.4 mph N/A   Clear
4:53 PM 77.0 °F - 46.9 °F 34% 29.82 in 8.0 mi SSW 23.0 mph 31.1 mph N/A   Clear
5:53 PM 75.0 °F - 48.0 °F 38% 29.81 in 10.0 mi SSW 18.4 mph 29.9 mph N/A   Clear
6:53 PM 73.0 °F - 48.0 °F 41% 29.81 in 10.0 mi SSW 13.8 mph 25.3 mph N/A   Clear
7:53 PM 69.8 °F - 48.2 °F 46% 29.83 in 9.0 mi SSW 11.5 mph - N/A   Clear
8:53 PM 68.0 °F - 50.0 °F 52% 29.84 in 10.0 mi SSW 10.4 mph - N/A   Clear
9:31 PM 66.2 °F - 53.6 °F 64% 29.87 in 8.0 mi SW 11.5 mph - 0.01 in Rain , Thunderstorm Rain
9:46 PM 64.4 °F - 55.4 °F 73% 29.86 in 10.0 mi SSW 11.5 mph - N/A   Mostly Cloudy
9:53 PM 63.0 °F - 55.9 °F 78% 29.86 in 6.0 mi SSW 11.5 mph - 0.02 in Rain Rain
10:00 PM 62.6 °F - 55.4 °F 77% 29.86 in 8.0 mi SSW 9.2 mph - 0.00 in Rain , Thunderstorm Light Rain
10:15 PM 62.6 °F - 55.4 °F 77% 29.87 in 10.0 mi SW 6.9 mph - 0.00 in   Overcast
10:53 PM 63.0 °F - 57.0 °F 81% 29.88 in 10.0 mi WNW 4.6 mph - 0.00 in   Overcast
11:53 PM 63.0 °F - 55.9 °F 78% 29.89 in 10.0 mi West 3.5 mph - N/A   Mostly Cloudy